Wetterdaten: Freitag, 13.05.2016
Datum Zeit Auen-Temp. Temp gefhlt Luftfeuchte Luftdruck Regen Wind Richtung Richtung Sonnenschein Taupunkt Windben
13.05.2016 00:00 7,8 C 7,7 C 88 % 999,7 hPa 0,0 mm 2,1 km/h (1 Bft) SW 225 0 min 5,9 C 0,0 km/h (0 Bft)
13.05.2016 00:05 7,8 C 7,7 C 88 % 999,7 hPa 0,0 mm 2,7 km/h (1 Bft) S 180 0 min 5,9 C 6,3 km/h (2 Bft)
13.05.2016 00:10 7,9 C 7,8 C 88 % 999,7 hPa 0,0 mm 3,0 km/h (1 Bft) S 180 0 min 6,0 C 0,0 km/h (0 Bft)
13.05.2016 00:15 8,0 C 7,9 C 87 % 999,6 hPa 0,0 mm 3,3 km/h (1 Bft) W-SW 247 0 min 6,0 C 9,5 km/h (2 Bft)
13.05.2016 00:20 8,0 C 7,9 C 87 % 999,6 hPa 0,0 mm 2,7 km/h (1 Bft) S 180 0 min 6,0 C 0,0 km/h (0 Bft)
13.05.2016 00:25 8,0 C 7,9 C 87 % 999,6 hPa 0,0 mm 2,4 km/h (1 Bft) SW 225 0 min 6,0 C 3,9 km/h (1 Bft)
13.05.2016 00:30 8,0 C 8,0 C 87 % 999,6 hPa 0,0 mm 2,1 km/h (1 Bft) SW 225 0 min 6,0 C 4,2 km/h (1 Bft)
13.05.2016 00:35 8,1 C 8,1 C 86 % 999,4 hPa 0,0 mm 3,0 km/h (1 Bft) W-SW 247 0 min 5,9 C 6,0 km/h (2 Bft)
13.05.2016 00:40 8,2 C 8,2 C 86 % 999,4 hPa 0,0 mm 3,3 km/h (1 Bft) S 180 0 min 6,0 C 5,4 km/h (1 Bft)
13.05.2016 00:45 8,3 C 8,3 C 86 % 999,4 hPa 0,0 mm 3,3 km/h (1 Bft) S 180 0 min 6,1 C 10,1 km/h (2 Bft)
13.05.2016 00:50 8,3 C 8,3 C 86 % 999,4 hPa 0,0 mm 2,7 km/h (1 Bft) W-SW 247 0 min 6,1 C 6,0 km/h (2 Bft)
13.05.2016 00:55 8,3 C 8,3 C 85 % 999,4 hPa 0,0 mm 1,2 km/h (1 Bft) S 180 0 min 5,9 C 0,0 km/h (0 Bft)
13.05.2016 01:00 8,2 C 8,3 C 85 % 999,4 hPa 0,0 mm 0,3 km/h (0 Bft) NW 315 0 min 5,8 C 0,0 km/h (0 Bft)
13.05.2016 01:05 8,1 C 8,3 C 85 % 999,4 hPa 0,0 mm 0,3 km/h (0 Bft) W-SW 247 0 min 5,7 C 0,0 km/h (0 Bft)
13.05.2016 01:10 8,1 C 8,3 C 85 % 999,4 hPa 0,0 mm 0,3 km/h (0 Bft) W-SW 247 0 min 5,7 C 0,0 km/h (0 Bft)
13.05.2016 01:12 8,2 C 8,4 C 85 % 999,4 hPa 0,0 mm 0,3 km/h (0 Bft) SW 225 0 min 5,8 C 0,0 km/h (0 Bft)
13.05.2016 01:15 8,2 C 8,4 C 85 % 999,4 hPa 0,0 mm 0,3 km/h (0 Bft) SW 225 0 min 5,8 C 0,0 km/h (0 Bft)
13.05.2016 01:20 8,2 C 8,4 C 85 % 999,4 hPa 0,0 mm 0,3 km/h (0 Bft) SW 225 0 min 5,8 C 3,9 km/h (1 Bft)
13.05.2016 01:25 8,3 C 8,4 C 85 % 999,4 hPa 0,0 mm 0,6 km/h (0 Bft) SW 225 0 min 5,9 C 0,0 km/h (0 Bft)
13.05.2016 01:30 8,3 C 8,4 C 84 % 999,4 hPa 0,0 mm 0,9 km/h (0 Bft) W-SW 247 0 min 5,8 C 0,0 km/h (0 Bft)
13.05.2016 01:35 8,3 C 8,3 C 84 % 999,3 hPa 0,0 mm 0,6 km/h (0 Bft) W-SW 247 0 min 5,8 C 0,0 km/h (0 Bft)
13.05.2016 01:40 8,2 C 8,3 C 84 % 999,3 hPa 0,0 mm 0,6 km/h (0 Bft) S-SW 202 0 min 5,7 C 3,3 km/h (1 Bft)
13.05.2016 01:45 8,3 C 8,3 C 84 % 999,3 hPa 0,0 mm 2,7 km/h (1 Bft) S-SW 202 0 min 5,8 C 10,7 km/h (2 Bft)
13.05.2016 01:50 8,4 C 8,4 C 83 % 999,3 hPa 0,0 mm 4,5 km/h (1 Bft) NW 315 0 min 5,7 C 3,6 km/h (1 Bft)
13.05.2016 01:55 8,4 C 8,4 C 83 % 999,3 hPa 0,0 mm 5,4 km/h (1 Bft) W-SW 247 0 min 5,7 C 12,2 km/h (2 Bft)
13.05.2016 02:00 8,4 C 8,4 C 83 % 999,3 hPa 0,0 mm 4,2 km/h (1 Bft) SW 225 0 min 5,7 C 8,3 km/h (2 Bft)
13.05.2016 02:05 8,4 C 8,4 C 83 % 999,3 hPa 0,0 mm 4,2 km/h (1 Bft) S 180 0 min 5,7 C 13,7 km/h (3 Bft)
13.05.2016 02:10 8,4 C 8,4 C 82 % 999,3 hPa 0,0 mm 5,7 km/h (1 Bft) SW 225 0 min 5,5 C 8,6 km/h (2 Bft)
13.05.2016 02:15 8,4 C 8,4 C 82 % 999,2 hPa 0,0 mm 5,7 km/h (1 Bft) SW 225 0 min 5,5 C 8,9 km/h (2 Bft)
13.05.2016 02:20 8,4 C 8,4 C 82 % 999,2 hPa 0,0 mm 5,1 km/h (1 Bft) S-SW 202 0 min 5,5 C 8,9 km/h (2 Bft)
13.05.2016 02:25 8,4 C 8,4 C 82 % 999,2 hPa 0,0 mm 6,3 km/h (2 Bft) S 180 0 min 5,5 C 14,9 km/h (3 Bft)
13.05.2016 02:30 8,4 C 8,3 C 81 % 999,2 hPa 0,0 mm 7,7 km/h (2 Bft) S 180 0 min 5,3 C 10,4 km/h (2 Bft)
13.05.2016 02:35 8,4 C 8,3 C 81 % 999,2 hPa 0,0 mm 7,7 km/h (2 Bft) W 270 0 min 5,3 C 16,4 km/h (3 Bft)
13.05.2016 02:40 8,3 C 8,2 C 81 % 999,2 hPa 0,0 mm 7,7 km/h (2 Bft) S 180 0 min 5,2 C 13,7 km/h (3 Bft)
13.05.2016 02:45 8,2 C 8,2 C 81 % 999,2 hPa 0,0 mm 6,9 km/h (2 Bft) SW 225 0 min 5,1 C 4,8 km/h (1 Bft)
13.05.2016 02:50 8,2 C 8,2 C 81 % 999,2 hPa 0,0 mm 6,0 km/h (2 Bft) N 360 0 min 5,1 C 6,3 km/h (2 Bft)
13.05.2016 02:55 8,1 C 8,1 C 81 % 999,2 hPa 0,0 mm 4,5 km/h (1 Bft) SW 225 0 min 5,0 C 4,8 km/h (1 Bft)
13.05.2016 03:00 8,1 C 8,0 C 81 % 999,2 hPa 0,0 mm 4,8 km/h (1 Bft) W-SW 247 0 min 5,0 C 6,0 km/h (2 Bft)
13.05.2016 03:05 8,0 C 7,9 C 81 % 999,2 hPa 0,0 mm 5,7 km/h (1 Bft) S-SW 202 0 min 4,9 C 9,5 km/h (2 Bft)
13.05.2016 03:10 8,0 C 7,8 C 82 % 999,2 hPa 0,0 mm 5,7 km/h (1 Bft) S-SO 157 0 min 5,1 C 7,7 km/h (2 Bft)
13.05.2016 03:15 7,9 C 7,8 C 82 % 998,9 hPa 0,0 mm 4,2 km/h (1 Bft) N-NW 337 0 min 5,0 C 0,0 km/h (0 Bft)
13.05.2016 03:20 7,9 C 7,7 C 82 % 998,9 hPa 0,0 mm 3,0 km/h (1 Bft) SW 225 0 min 5,0 C 3,3 km/h (1 Bft)
13.05.2016 03:25 7,8 C 7,6 C 83 % 998,9 hPa 0,0 mm 3,6 km/h (1 Bft) S 180 0 min 5,1 C 4,5 km/h (1 Bft)
13.05.2016 03:30 7,9 C 7,7 C 83 % 998,9 hPa 0,0 mm 5,4 km/h (1 Bft) S 180 0 min 5,2 C 8,0 km/h (2 Bft)
13.05.2016 03:35 7,8 C 7,6 C 83 % 998,6 hPa 0,0 mm 4,5 km/h (1 Bft) W-SW 247 0 min 5,1 C 3,0 km/h (1 Bft)
13.05.2016 03:40 7,8 C 7,6 C 83 % 998,6 hPa 0,0 mm 4,8 km/h (1 Bft) W-SW 247 0 min 5,1 C 8,3 km/h (2 Bft)
13.05.2016 03:45 7,8 C 7,6 C 84 % 998,6 hPa 0,0 mm 4,5 km/h (1 Bft) S-SW 202 0 min 5,3 C 3,6 km/h (1 Bft)
13.05.2016 03:50 7,8 C 7,6 C 84 % 998,6 hPa 0,0 mm 4,2 km/h (1 Bft) W-SW 247 0 min 5,3 C 0,0 km/h (0 Bft)
13.05.2016 03:55 7,8 C 7,6 C 84 % 998,7 hPa 0,0 mm 2,7 km/h (1 Bft) O 90 0 min 5,3 C 0,0 km/h (0 Bft)
13.05.2016 04:00 7,8 C 7,6 C 84 % 998,7 hPa 0,0 mm 1,5 km/h (1 Bft) S 180 0 min 5,3 C 0,0 km/h (0 Bft)
13.05.2016 04:05 7,8 C 7,6 C 84 % 998,7 hPa 0,0 mm 2,4 km/h (1 Bft) W-SW 247 0 min 5,3 C 19,7 km/h (3 Bft)
13.05.2016 04:10 7,8 C 7,6 C 84 % 998,7 hPa 0,0 mm 3,3 km/h (1 Bft) S-SW 202 0 min 5,3 C 0,0 km/h (0 Bft)
13.05.2016 04:12 7,8 C 7,6 C 84 % 998,8 hPa 0,0 mm 3,6 km/h (1 Bft) SW 225 0 min 5,3 C 4,8 km/h (1 Bft)
13.05.2016 04:13 7,8 C 7,6 C 84 % 998,8 hPa 0,0 mm 3,6 km/h (1 Bft) SW 225 0 min 5,3 C 4,8 km/h (1 Bft)
13.05.2016 04:15 7,8 C 7,6 C 84 % 998,8 hPa 0,0 mm 3,6 km/h (1 Bft) SW 225 0 min 5,3 C 4,8 km/h (1 Bft)
13.05.2016 04:20 7,8 C 7,6 C 85 % 998,8 hPa 0,0 mm 3,6 km/h (1 Bft) S 180 0 min 5,4 C 4,2 km/h (1 Bft)
13.05.2016 04:25 7,7 C 7,5 C 85 % 998,8 hPa 0,0 mm 2,4 km/h (1 Bft) SW 225 0 min 5,3 C 3,9 km/h (1 Bft)
13.05.2016 04:30 7,7 C 7,5 C 85 % 998,8 hPa 0,0 mm 2,7 km/h (1 Bft) W-NW 292 0 min 5,3 C 0,0 km/h (0 Bft)
13.05.2016 04:35 7,7 C 7,5 C 85 % 998,7 hPa 0,0 mm 3,9 km/h (1 Bft) S 180 0 min 5,3 C 6,0 km/h (2 Bft)
13.05.2016 04:40 7,7 C 7,5 C 85 % 998,7 hPa 0,0 mm 2,4 km/h (1 Bft) NW 315 0 min 5,3 C 6,0 km/h (2 Bft)
13.05.2016 04:45 7,6 C 7,4 C 85 % 998,7 hPa 0,0 mm 2,7 km/h (1 Bft) O-NO 67 0 min 5,2 C 0,0 km/h (0 Bft)
13.05.2016 04:50 7,6 C 7,4 C 85 % 998,7 hPa 0,0 mm 3,3 km/h (1 Bft) W 270 0 min 5,2 C 3,9 km/h (1 Bft)
13.05.2016 04:55 7,5 C 7,4 C 86 % 998,6 hPa 0,0 mm 2,7 km/h (1 Bft) NO 45 0 min 5,3 C 0,0 km/h (0 Bft)
13.05.2016 05:00 7,5 C 7,4 C 86 % 998,6 hPa 0,0 mm 2,7 km/h (1 Bft) NW 315 0 min 5,3 C 4,2 km/h (1 Bft)
13.05.2016 05:05 7,5 C 7,4 C 86 % 998,6 hPa 0,0 mm 3,0 km/h (1 Bft) W-SW 247 0 min 5,3 C 3,3 km/h (1 Bft)
13.05.2016 05:10 7,5 C 7,4 C 86 % 998,6 hPa 0,0 mm 3,3 km/h (1 Bft) SW 225 0 min 5,3 C 4,2 km/h (1 Bft)
13.05.2016 05:15 7,5 C 7,4 C 86 % 998,5 hPa 0,0 mm 2,7 km/h (1 Bft) NW 315 0 min 5,3 C 6,6 km/h (2 Bft)
13.05.2016 05:20 7,5 C 7,4 C 86 % 998,5 hPa 0,0 mm 3,0 km/h (1 Bft) W-SW 247 0 min 5,3 C 8,3 km/h (2 Bft)
13.05.2016 05:25 7,5 C 7,4 C 86 % 998,5 hPa 0,0 mm 3,6 km/h (1 Bft) SW 225 0 min 5,3 C 0,0 km/h (0 Bft)
13.05.2016 05:30 7,6 C 7,4 C 86 % 998,5 hPa 0,0 mm 3,9 km/h (1 Bft) W 270 0 min 5,4 C 9,5 km/h (2 Bft)
13.05.2016 05:35 7,6 C 7,4 C 87 % 998,4 hPa 0,0 mm 3,6 km/h (1 Bft) W-NW 292 0 min 5,6 C 4,8 km/h (1 Bft)
13.05.2016 05:40 7,6 C 7,4 C 87 % 998,4 hPa 0,0 mm 2,7 km/h (1 Bft) W 270 0 min 5,6 C 0,0 km/h (0 Bft)
13.05.2016 05:45 7,6 C 7,4 C 87 % 998,4 hPa 0,0 mm 2,4 km/h (1 Bft) W-SW 247 0 min 5,6 C 5,1 km/h (1 Bft)
13.05.2016 05:50 7,6 C 7,4 C 87 % 998,4 hPa 0,0 mm 2,4 km/h (1 Bft) W 270 0 min 5,6 C 5,4 km/h (1 Bft)
13.05.2016 05:55 7,6 C 7,4 C 87 % 998,4 hPa 0,0 mm 2,4 km/h (1 Bft) W 270 0 min 5,6 C 11,9 km/h (2 Bft)
13.05.2016 06:00 7,7 C 7,5 C 87 % 998,4 hPa 0,0 mm 2,1 km/h (1 Bft) S 180 0 min 5,7 C 0,0 km/h (0 Bft)
13.05.2016 06:05 7,7 C 7,5 C 87 % 998,4 hPa 0,0 mm 2,7 km/h (1 Bft) S 180 0 min 5,7 C 3,9 km/h (1 Bft)
13.05.2016 06:10 7,8 C 7,6 C 87 % 998,4 hPa 0,0 mm 2,7 km/h (1 Bft) W 270 0 min 5,8 C 3,9 km/h (1 Bft)
13.05.2016 06:15 7,8 C 7,6 C 87 % 998,5 hPa 0,0 mm 2,7 km/h (1 Bft) S-SW 202 0 min 5,8 C 5,4 km/h (1 Bft)
13.05.2016 06:20 7,8 C 7,6 C 87 % 998,5 hPa 0,0 mm 2,7 km/h (1 Bft) W 270 0 min 5,8 C 5,7 km/h (1 Bft)
13.05.2016 06:25 7,9 C 7,8 C 87 % 998,5 hPa 0,0 mm 3,0 km/h (1 Bft) S 180 0 min 5,9 C 6,9 km/h (2 Bft)
13.05.2016 06:30 7,9 C 7,8 C 84 % 998,5 hPa 0,0 mm 3,3 km/h (1 Bft) S-SO 157 0 min 5,4 C 0,0 km/h (0 Bft)
13.05.2016 06:35 8,0 C 7,9 C 87 % 998,5 hPa 0,0 mm 3,6 km/h (1 Bft) W 270 0 min 6,0 C 8,6 km/h (2 Bft)
13.05.2016 06:40 8,0 C 8,0 C 84 % 998,5 hPa 0,0 mm 3,3 km/h (1 Bft) W-SW 247 0 min 5,5 C 5,4 km/h (1 Bft)
13.05.2016 06:45 8,1 C 8,0 C 86 % 998,5 hPa 0,0 mm 3,6 km/h (1 Bft) S 180 0 min 5,9 C 4,2 km/h (1 Bft)
13.05.2016 06:50 8,1 C 8,1 C 84 % 998,5 hPa 0,0 mm 3,3 km/h (1 Bft) W 270 0 min 5,6 C 3,9 km/h (1 Bft)
13.05.2016 06:55 8,1 C 8,2 C 84 % 998,6 hPa 0,0 mm 4,2 km/h (1 Bft) S-SW 202 0 min 5,6 C 5,4 km/h (1 Bft)
13.05.2016 07:00 8,1 C 8,2 C 84 % 998,6 hPa 0,0 mm 3,9 km/h (1 Bft) S 180 0 min 5,6 C 8,6 km/h (2 Bft)
13.05.2016 07:05 8,2 C 8,2 C 84 % 998,6 hPa 0,0 mm 5,1 km/h (1 Bft) S 180 0 min 5,7 C 8,3 km/h (2 Bft)
13.05.2016 07:10 8,2 C 8,2 C 84 % 998,6 hPa 0,0 mm 6,0 km/h (2 Bft) W-SW 247 0 min 5,7 C 6,3 km/h (2 Bft)
13.05.2016 07:12 8,2 C 8,3 C 84 % 998,8 hPa 0,0 mm 5,4 km/h (1 Bft) NW 315 0 min 5,7 C 8,3 km/h (2 Bft)
13.05.2016 07:14 8,2 C 8,3 C 84 % 998,8 hPa 0,0 mm 5,4 km/h (1 Bft) NW 315 0 min 5,7 C 8,3 km/h (2 Bft)
13.05.2016 07:20 8,2 C 8,3 C 84 % 998,8 hPa 0,0 mm 5,7 km/h (1 Bft) W-SW 247 0 min 5,7 C 9,5 km/h (2 Bft)
13.05.2016 07:25 8,3 C 8,3 C 84 % 998,8 hPa 0,0 mm 6,0 km/h (2 Bft) W 270 0 min 5,8 C 7,2 km/h (2 Bft)
13.05.2016 07:30 8,3 C 8,3 C 84 % 998,8 hPa 0,0 mm 6,6 km/h (2 Bft) NW 315 0 min 5,8 C 7,2 km/h (2 Bft)
13.05.2016 07:35 8,3 C 8,4 C 84 % 998,8 hPa 0,0 mm 7,2 km/h (2 Bft) O-SO 112 0 min 5,8 C 20,6 km/h (4 Bft)
13.05.2016 07:40 8,4 C 8,4 C 84 % 998,8 hPa 0,0 mm 6,3 km/h (2 Bft) S-SW 202 0 min 5,9 C 5,4 km/h (1 Bft)
13.05.2016 07:45 8,4 C 8,5 C 84 % 998,8 hPa 0,0 mm 5,4 km/h (1 Bft) S 180 0 min 5,9 C 12,5 km/h (3 Bft)
13.05.2016 07:50 8,5 C 8,6 C 84 % 998,8 hPa 0,0 mm 5,4 km/h (1 Bft) SW 225 0 min 6,0 C 7,5 km/h (2 Bft)
13.05.2016 07:55 8,6 C 8,7 C 84 % 998,8 hPa 0,0 mm 5,4 km/h (1 Bft) W-SW 247 0 min 6,1 C 10,1 km/h (2 Bft)
13.05.2016 08:00 8,6 C 8,8 C 84 % 998,8 hPa 0,0 mm 5,7 km/h (1 Bft) W 270 0 min 6,1 C 5,1 km/h (1 Bft)
13.05.2016 08:05 8,7 C 8,9 C 84 % 998,8 hPa 0,0 mm 5,4 km/h (1 Bft) W-SW 247 0 min 6,2 C 10,7 km/h (2 Bft)
13.05.2016 08:10 8,7 C 8,8 C 84 % 998,8 hPa 0,0 mm 6,0 km/h (2 Bft) W-SW 247 0 min 6,2 C 17,3 km/h (3 Bft)
13.05.2016 08:15 8,7 C 8,8 C 84 % 998,8 hPa 0,0 mm 6,3 km/h (2 Bft) W-SW 247 0 min 6,2 C 6,0 km/h (2 Bft)
13.05.2016 08:20 8,7 C 8,8 C 84 % 998,8 hPa 0,0 mm 5,1 km/h (1 Bft) S-SO 157 0 min 6,2 C 4,5 km/h (1 Bft)
13.05.2016 08:25 8,7 C 8,8 C 84 % 998,8 hPa 0,0 mm 3,9 km/h (1 Bft) S-SO 157 0 min 6,2 C 5,7 km/h (1 Bft)
13.05.2016 08:30 8,7 C 8,7 C 84 % 998,8 hPa 0,0 mm 4,5 km/h (1 Bft) W 270 0 min 6,2 C 4,8 km/h (1 Bft)
13.05.2016 08:35 8,8 C 8,7 C 84 % 998,9 hPa 0,0 mm 5,7 km/h (1 Bft) SW 225 0 min 6,2 C 11,6 km/h (2 Bft)
13.05.2016 08:40 8,8 C 8,8 C 83 % 998,9 hPa 0,0 mm 6,6 km/h (2 Bft) W-NW 292 0 min 6,1 C 10,1 km/h (2 Bft)
13.05.2016 08:45 8,9 C 9,0 C 83 % 998,9 hPa 0,7 mm 6,9 km/h (2 Bft) W-SW 247 0 min 6,2 C 23,2 km/h (4 Bft)
13.05.2016 08:50 8,9 C 9,0 C 83 % 998,9 hPa 0,0 mm 7,5 km/h (2 Bft) W 270 0 min 6,2 C 15,5 km/h (3 Bft)
13.05.2016 08:55 9,0 C 9,1 C 83 % 998,9 hPa 0,0 mm 7,2 km/h (2 Bft) W-SW 247 0 min 6,3 C 14,6 km/h (3 Bft)
13.05.2016 09:00 9,0 C 9,0 C 83 % 998,9 hPa 0,0 mm 8,0 km/h (2 Bft) W 270 0 min 6,3 C 8,9 km/h (2 Bft)
13.05.2016 09:05 8,9 C 8,9 C 83 % 998,9 hPa 0,0 mm 8,3 km/h (2 Bft) S-SW 202 0 min 6,2 C 3,6 km/h (1 Bft)
13.05.2016 09:10 8,9 C 9,0 C 83 % 998,9 hPa 0,0 mm 7,5 km/h (2 Bft) W-NW 292 0 min 6,2 C 10,1 km/h (2 Bft)
13.05.2016 09:15 8,9 C 9,0 C 83 % 999,1 hPa 0,0 mm 6,6 km/h (2 Bft) W 270 0 min 6,2 C 19,7 km/h (3 Bft)
13.05.2016 09:20 8,9 C 8,9 C 83 % 999,1 hPa 0,0 mm 6,9 km/h (2 Bft) SW 225 0 min 6,2 C 6,9 km/h (2 Bft)
13.05.2016 09:25 8,9 C 8,9 C 83 % 999,1 hPa 0,0 mm 7,5 km/h (2 Bft) NW 315 0 min 6,2 C 5,7 km/h (1 Bft)
13.05.2016 09:30 8,9 C 8,9 C 83 % 999,1 hPa 0,0 mm 7,2 km/h (2 Bft) NW 315 0 min 6,2 C 6,3 km/h (2 Bft)
13.05.2016 09:35 9,0 C 9,0 C 83 % 999,2 hPa 0,0 mm 7,5 km/h (2 Bft) W 270 0 min 6,3 C 16,4 km/h (3 Bft)
13.05.2016 09:40 9,0 C 9,0 C 83 % 999,2 hPa 0,0 mm 7,5 km/h (2 Bft) W-SW 247 0 min 6,3 C 8,3 km/h (2 Bft)
13.05.2016 09:45 9,1 C 9,3 C 83 % 999,2 hPa 0,0 mm 7,2 km/h (2 Bft) NW 315 0 min 6,4 C 11,9 km/h (2 Bft)
13.05.2016 09:50 9,1 C 9,3 C 83 % 999,2 hPa 0,0 mm 6,3 km/h (2 Bft) NW 315 0 min 6,4 C 3,3 km/h (1 Bft)
13.05.2016 09:55 9,1 C 9,1 C 83 % 999,2 hPa 0,0 mm 8,3 km/h (2 Bft) W 270 0 min 6,4 C 22,4 km/h (4 Bft)
13.05.2016 10:00 9,0 C 8,9 C 83 % 999,2 hPa 0,7 mm 9,8 km/h (2 Bft) W 270 0 min 6,3 C 31,6 km/h (5 Bft)
13.05.2016 10:05 9,0 C 8,9 C 83 % 999,2 hPa 0,0 mm 10,4 km/h (2 Bft) NW 315 0 min 6,3 C 11,3 km/h (2 Bft)
13.05.2016 10:10 9,1 C 9,2 C 83 % 999,2 hPa 0,0 mm 7,2 km/h (2 Bft) NW 315 0 min 6,4 C 14,0 km/h (3 Bft)
13.05.2016 10:12 9,0 C 9,2 C 83 % 999,4 hPa 0,0 mm 6,0 km/h (2 Bft) NW 315 0 min 6,3 C 6,3 km/h (2 Bft)
13.05.2016 10:15 9,0 C 9,2 C 83 % 999,4 hPa 0,0 mm 6,0 km/h (2 Bft) NW 315 0 min 6,3 C 6,3 km/h (2 Bft)
13.05.2016 10:20 9,0 C 9,2 C 83 % 999,4 hPa 0,0 mm 6,0 km/h (2 Bft) W 270 0 min 6,3 C 6,6 km/h (2 Bft)
13.05.2016 10:25 9,0 C 9,1 C 83 % 999,4 hPa 0,0 mm 5,7 km/h (1 Bft) W-SW 247 0 min 6,3 C 8,9 km/h (2 Bft)
13.05.2016 10:30 9,0 C 9,2 C 84 % 999,4 hPa 0,7 mm 6,0 km/h (2 Bft) W-NW 292 0 min 6,4 C 5,4 km/h (1 Bft)
13.05.2016 10:35 9,0 C 9,2 C 84 % 999,8 hPa 0,0 mm 6,0 km/h (2 Bft) W-SW 247 0 min 6,4 C 3,9 km/h (1 Bft)
13.05.2016 10:40 9,0 C 9,3 C 84 % 999,8 hPa 0,0 mm 6,0 km/h (2 Bft) W-SW 247 0 min 6,4 C 4,5 km/h (1 Bft)
13.05.2016 10:45 9,1 C 9,4 C 84 % 999,8 hPa 0,7 mm 4,5 km/h (1 Bft) NW 315 0 min 6,5 C 4,8 km/h (1 Bft)
13.05.2016 10:50 9,1 C 9,4 C 84 % 999,8 hPa 0,0 mm 5,1 km/h (1 Bft) W 270 0 min 6,5 C 15,2 km/h (3 Bft)
13.05.2016 10:55 9,2 C 9,4 C 84 % 999,9 hPa 0,0 mm 7,7 km/h (2 Bft) W-SW 247 0 min 6,6 C 11,9 km/h (2 Bft)
13.05.2016 11:00 9,2 C 9,3 C 84 % 999,9 hPa 0,0 mm 9,2 km/h (2 Bft) W-SW 247 0 min 6,6 C 9,8 km/h (2 Bft)
13.05.2016 11:05 9,2 C 9,4 C 84 % 999,9 hPa 0,0 mm 8,3 km/h (2 Bft) NW 315 0 min 6,6 C 10,7 km/h (2 Bft)
13.05.2016 11:10 9,3 C 9,4 C 84 % 999,9 hPa 0,0 mm 7,2 km/h (2 Bft) W-SW 247 0 min 6,7 C 0,0 km/h (0 Bft)
13.05.2016 11:15 9,3 C 9,6 C 84 % 1000,3 hPa 0,7 mm 6,6 km/h (2 Bft) W 270 0 min 6,7 C 22,9 km/h (4 Bft)
13.05.2016 11:20 9,3 C 9,5 C 84 % 1000,3 hPa 0,0 mm 5,1 km/h (1 Bft) NW 315 0 min 6,7 C 8,3 km/h (2 Bft)
13.05.2016 11:25 9,2 C 9,1 C 84 % 1000,3 hPa 0,0 mm 9,5 km/h (2 Bft) W 270 0 min 6,6 C 15,8 km/h (3 Bft)
13.05.2016 11:30 9,2 C 9,0 C 84 % 1000,3 hPa 0,0 mm 9,8 km/h (2 Bft) W 270 0 min 6,6 C 11,3 km/h (2 Bft)
13.05.2016 11:35 9,2 C 9,1 C 84 % 1000,5 hPa 0,7 mm 8,6 km/h (2 Bft) N-NW 337 0 min 6,6 C 15,2 km/h (3 Bft)
13.05.2016 11:40 9,2 C 9,1 C 84 % 1000,5 hPa 0,0 mm 8,9 km/h (2 Bft) W-SW 247 0 min 6,6 C 13,7 km/h (3 Bft)
13.05.2016 11:45 9,1 C 9,1 C 85 % 1000,5 hPa 0,0 mm 8,6 km/h (2 Bft) S 180 0 min 6,7 C 4,8 km/h (1 Bft)
13.05.2016 11:50 9,2 C 9,3 C 85 % 1000,5 hPa 0,7 mm 7,2 km/h (2 Bft) W-SW 247 0 min 6,8 C 6,6 km/h (2 Bft)
13.05.2016 11:55 9,1 C 9,1 C 85 % 1000,4 hPa 0,0 mm 9,5 km/h (2 Bft) N-NW 337 0 min 6,7 C 10,7 km/h (2 Bft)
13.05.2016 12:00 9,1 C 8,9 C 85 % 1000,4 hPa 0,0 mm 10,7 km/h (2 Bft) NW 315 0 min 6,7 C 8,6 km/h (2 Bft)
13.05.2016 12:05 9,1 C 9,1 C 85 % 1000,4 hPa 0,0 mm 9,2 km/h (2 Bft) W 270 0 min 6,7 C 18,2 km/h (3 Bft)
13.05.2016 12:10 9,1 C 9,3 C 85 % 1000,4 hPa 0,0 mm 7,5 km/h (2 Bft) W-SW 247 0 min 6,7 C 14,0 km/h (3 Bft)
13.05.2016 12:15 9,2 C 9,3 C 85 % 1000,6 hPa 0,0 mm 8,3 km/h (2 Bft) W 270 0 min 6,8 C 13,7 km/h (3 Bft)
13.05.2016 12:20 9,2 C 9,3 C 85 % 1000,6 hPa 0,7 mm 8,6 km/h (2 Bft) W-SW 247 0 min 6,8 C 17,0 km/h (3 Bft)
13.05.2016 12:25 9,2 C 9,2 C 85 % 1000,6 hPa 0,0 mm 9,8 km/h (2 Bft) W-NW 292 0 min 6,8 C 7,5 km/h (2 Bft)
13.05.2016 12:30 9,3 C 9,2 C 85 % 1000,6 hPa 0,0 mm 10,4 km/h (2 Bft) W-SW 247 0 min 6,9 C 7,2 km/h (2 Bft)
13.05.2016 12:35 9,3 C 9,4 C 85 % 1000,5 hPa 0,7 mm 9,5 km/h (2 Bft) W 270 0 min 6,9 C 31,9 km/h (5 Bft)
13.05.2016 12:40 9,3 C 9,3 C 85 % 1000,5 hPa 0,0 mm 10,4 km/h (2 Bft) W-NW 292 0 min 6,9 C 17,3 km/h (3 Bft)
13.05.2016 12:45 9,3 C 9,3 C 85 % 1000,5 hPa 0,0 mm 10,1 km/h (2 Bft) NW 315 0 min 6,9 C 9,5 km/h (2 Bft)
13.05.2016 12:50 9,3 C 9,3 C 85 % 1000,5 hPa 0,0 mm 9,5 km/h (2 Bft) NW 315 0 min 6,9 C 14,6 km/h (3 Bft)
13.05.2016 12:55 9,4 C 9,4 C 85 % 1000,8 hPa 0,0 mm 8,9 km/h (2 Bft) W-SW 247 0 min 7,0 C 15,2 km/h (3 Bft)
13.05.2016 13:00 9,4 C 9,5 C 85 % 1000,8 hPa 0,0 mm 7,5 km/h (2 Bft) W-SW 247 0 min 7,0 C 8,0 km/h (2 Bft)
13.05.2016 13:05 9,4 C 9,5 C 85 % 1000,8 hPa 0,0 mm 6,0 km/h (2 Bft) SO 135 0 min 7,0 C 9,5 km/h (2 Bft)
13.05.2016 13:10 9,4 C 9,6 C 85 % 1000,8 hPa 0,0 mm 6,6 km/h (2 Bft) S 180 0 min 7,0 C 6,3 km/h (2 Bft)
13.05.2016 13:15 9,5 C 9,6 C 85 % 1001,1 hPa 0,7 mm 7,5 km/h (2 Bft) W-SW 247 0 min 7,1 C 6,6 km/h (2 Bft)
13.05.2016 13:17 9,5 C 9,6 C 85 % 1001,1 hPa 0,0 mm 7,5 km/h (2 Bft) W-SW 247 0 min 7,1 C 6,6 km/h (2 Bft)
13.05.2016 13:20 9,4 C 9,4 C 85 % 1001,1 hPa 0,0 mm 8,6 km/h (2 Bft) SW 225 0 min 7,0 C 8,9 km/h (2 Bft)
13.05.2016 13:25 9,4 C 9,4 C 85 % 1001,1 hPa 0,0 mm 9,5 km/h (2 Bft) W-NW 292 0 min 7,0 C 11,9 km/h (2 Bft)
13.05.2016 13:30 9,5 C 9,6 C 85 % 1001,1 hPa 0,7 mm 7,7 km/h (2 Bft) NW 315 0 min 7,1 C 6,3 km/h (2 Bft)
13.05.2016 13:35 9,6 C 9,7 C 85 % 1001,2 hPa 0,0 mm 6,0 km/h (2 Bft) NW 315 0 min 7,2 C 8,0 km/h (2 Bft)
13.05.2016 13:40 9,6 C 9,8 C 85 % 1001,2 hPa 0,0 mm 5,7 km/h (1 Bft) W-NW 292 0 min 7,2 C 8,0 km/h (2 Bft)
13.05.2016 13:45 9,6 C 9,9 C 85 % 1001,2 hPa 0,7 mm 4,8 km/h (1 Bft) W 270 0 min 7,2 C 5,1 km/h (1 Bft)
13.05.2016 13:50 9,7 C 10,0 C 85 % 1001,2 hPa 0,0 mm 4,5 km/h (1 Bft) W-NW 292 0 min 7,3 C 6,3 km/h (2 Bft)
13.05.2016 13:55 9,8 C 10,1 C 85 % 1001,5 hPa 0,0 mm 4,5 km/h (1 Bft) W-NW 292 0 min 7,4 C 13,4 km/h (3 Bft)
13.05.2016 14:00 9,9 C 10,0 C 85 % 1001,5 hPa 0,0 mm 4,8 km/h (1 Bft) N-NW 337 0 min 7,5 C 0,0 km/h (0 Bft)
13.05.2016 14:05 9,9 C 10,1 C 85 % 1001,5 hPa 0,0 mm 3,9 km/h (1 Bft) NW 315 0 min 7,5 C 9,8 km/h (2 Bft)
13.05.2016 14:10 9,9 C 10,1 C 85 % 1001,5 hPa 0,0 mm 1,8 km/h (1 Bft) SW 225 0 min 7,5 C 0,0 km/h (0 Bft)
13.05.2016 14:15 9,9 C 10,1 C 85 % 1001,9 hPa 0,7 mm 2,7 km/h (1 Bft) W 270 0 min 7,5 C 0,0 km/h (0 Bft)
13.05.2016 14:20 9,9 C 10,0 C 85 % 1001,9 hPa 0,0 mm 2,7 km/h (1 Bft) W 270 0 min 7,5 C 0,0 km/h (0 Bft)
13.05.2016 14:25 10,0 C 10,2 C 85 % 1001,9 hPa 0,0 mm 2,1 km/h (1 Bft) W 270 0 min 7,6 C 3,0 km/h (1 Bft)
13.05.2016 14:30 10,0 C 10,3 C 85 % 1001,9 hPa 0,0 mm 1,8 km/h (1 Bft) W 270 0 min 7,6 C 6,6 km/h (2 Bft)
13.05.2016 14:35 10,1 C 10,3 C 85 % 1001,8 hPa 0,0 mm 3,9 km/h (1 Bft) W 270 0 min 7,7 C 5,1 km/h (1 Bft)
13.05.2016 14:40 10,1 C 10,3 C 85 % 1001,8 hPa 0,7 mm 6,3 km/h (2 Bft) SW 225 0 min 7,7 C 4,8 km/h (1 Bft)
13.05.2016 14:45 10,2 C 10,5 C 85 % 1001,8 hPa 0,0 mm 5,7 km/h (1 Bft) W-NW 292 0 min 7,8 C 3,3 km/h (1 Bft)
13.05.2016 14:50 10,2 C 10,6 C 85 % 1001,8 hPa 0,0 mm 3,6 km/h (1 Bft) W 270 0 min 7,8 C 0,0 km/h (0 Bft)
13.05.2016 14:55 10,4 C 10,9 C 85 % 1001,8 hPa 0,7 mm 4,5 km/h (1 Bft) NO 45 0 min 8,0 C 7,2 km/h (2 Bft)
13.05.2016 15:00 10,5 C 11,0 C 85 % 1001,8 hPa 0,0 mm 5,7 km/h (1 Bft) W-SW 247 0 min 8,1 C 8,0 km/h (2 Bft)
13.05.2016 15:05 10,7 C 11,1 C 85 % 1001,8 hPa 0,0 mm 7,5 km/h (2 Bft) SO 135 0 min 8,3 C 8,9 km/h (2 Bft)
13.05.2016 15:10 10,7 C 11,1 C 85 % 1001,8 hPa 0,0 mm 6,6 km/h (2 Bft) W 270 0 min 8,3 C 8,9 km/h (2 Bft)
13.05.2016 15:15 10,7 C 11,1 C 85 % 1001,8 hPa 0,0 mm 5,7 km/h (1 Bft) W-SW 247 0 min 8,3 C 10,1 km/h (2 Bft)
13.05.2016 15:20 10,7 C 11,2 C 85 % 1001,8 hPa 0,0 mm 6,0 km/h (2 Bft) N-NW 337 0 min 8,3 C 5,1 km/h (1 Bft)
13.05.2016 15:25 10,8 C 11,1 C 85 % 1001,8 hPa 0,0 mm 7,5 km/h (2 Bft) W-NW 292 0 min 8,4 C 17,3 km/h (3 Bft)
13.05.2016 15:30 10,8 C 11,1 C 85 % 1001,8 hPa 0,0 mm 8,0 km/h (2 Bft) W-NW 292 0 min 8,4 C 10,1 km/h (2 Bft)
13.05.2016 15:35 10,9 C 11,4 C 85 % 1002,1 hPa 0,0 mm 6,9 km/h (2 Bft) SW 225 0 min 8,5 C 10,1 km/h (2 Bft)
13.05.2016 15:40 11,1 C 11,6 C 85 % 1002,1 hPa 0,0 mm 6,6 km/h (2 Bft) S 180 0 min 8,7 C 14,0 km/h (3 Bft)
13.05.2016 15:45 11,1 C 11,7 C 85 % 1002,1 hPa 0,7 mm 7,5 km/h (2 Bft) N 360 0 min 8,7 C 6,3 km/h (2 Bft)
13.05.2016 15:50 11,1 C 11,8 C 85 % 1002,1 hPa 0,0 mm 6,6 km/h (2 Bft) NW 315 0 min 8,7 C 7,5 km/h (2 Bft)
13.05.2016 15:55 11,3 C 11,9 C 85 % 1002,0 hPa 0,0 mm 5,7 km/h (1 Bft) SW 225 0 min 8,9 C 6,3 km/h (2 Bft)
13.05.2016 16:00 11,3 C 11,8 C 85 % 1002,0 hPa 0,0 mm 5,1 km/h (1 Bft) N 360 0 min 8,9 C 5,1 km/h (1 Bft)
13.05.2016 16:05 11,3 C 11,7 C 84 % 1002,0 hPa 0,0 mm 5,4 km/h (1 Bft) W 270 0 min 8,7 C 0,0 km/h (0 Bft)
13.05.2016 16:10 11,3 C 12,0 C 84 % 1002,0 hPa 0,0 mm 4,8 km/h (1 Bft) W 270 0 min 8,7 C 8,0 km/h (2 Bft)
13.05.2016 16:15 11,3 C 11,9 C 84 % 1002,2 hPa 0,0 mm 5,7 km/h (1 Bft) W 270 0 min 8,7 C 7,2 km/h (2 Bft)
13.05.2016 16:17 11,3 C 11,8 C 84 % 1002,2 hPa 0,0 mm 6,3 km/h (2 Bft) W-SW 247 0 min 8,7 C 5,1 km/h (1 Bft)
13.05.2016 16:18 11,3 C 11,8 C 84 % 1002,2 hPa 0,0 mm 6,3 km/h (2 Bft) W-SW 247 0 min 8,7 C 5,1 km/h (1 Bft)
13.05.2016 16:20 11,3 C 11,8 C 84 % 1002,2 hPa 0,0 mm 6,3 km/h (2 Bft) W-SW 247 0 min 8,7 C 5,1 km/h (1 Bft)
13.05.2016 16:25 11,3 C 11,7 C 84 % 1002,2 hPa 0,0 mm 5,7 km/h (1 Bft) NW 315 0 min 8,7 C 10,7 km/h (2 Bft)
13.05.2016 16:30 11,3 C 11,5 C 84 % 1002,2 hPa 0,0 mm 5,7 km/h (1 Bft) W-SW 247 0 min 8,7 C 11,9 km/h (2 Bft)
13.05.2016 16:35 11,1 C 11,2 C 84 % 1002,2 hPa 0,0 mm 6,0 km/h (2 Bft) W-SW 247 0 min 8,5 C 4,5 km/h (1 Bft)
13.05.2016 16:40 11,1 C 11,1 C 84 % 1002,2 hPa 0,0 mm 4,2 km/h (1 Bft) W 270 0 min 8,5 C 4,2 km/h (1 Bft)
13.05.2016 16:45 11,0 C 10,9 C 84 % 1002,2 hPa 0,0 mm 2,1 km/h (1 Bft) W-SW 247 0 min 8,4 C 4,5 km/h (1 Bft)
13.05.2016 16:50 10,9 C 10,8 C 84 % 1002,2 hPa 0,0 mm 2,7 km/h (1 Bft) NW 315 0 min 8,3 C 3,3 km/h (1 Bft)
13.05.2016 16:55 10,9 C 10,8 C 84 % 1002,2 hPa 0,0 mm 1,8 km/h (1 Bft) O-NO 67 0 min 8,3 C 0,0 km/h (0 Bft)
13.05.2016 17:00 10,9 C 10,8 C 85 % 1002,2 hPa 0,0 mm 1,2 km/h (1 Bft) W 270 0 min 8,5 C 3,9 km/h (1 Bft)
13.05.2016 17:05 10,9 C 10,9 C 84 % 1002,2 hPa 0,0 mm 0,6 km/h (0 Bft) NO 45 0 min 8,3 C 0,0 km/h (0 Bft)
13.05.2016 17:10 10,9 C 11,1 C 84 % 1002,2 hPa 0,0 mm 0,3 km/h (0 Bft) SO 135 0 min 8,3 C 0,0 km/h (0 Bft)
13.05.2016 17:15 11,1 C 11,5 C 84 % 1002,3 hPa 0,0 mm 1,2 km/h (1 Bft) SO 135 0 min 8,5 C 0,0 km/h (0 Bft)
13.05.2016 17:20 11,1 C 11,8 C 84 % 1002,3 hPa 0,0 mm 1,8 km/h (1 Bft) W-NW 292 0 min 8,5 C 4,2 km/h (1 Bft)
13.05.2016 17:25 11,3 C 12,1 C 84 % 1002,3 hPa 0,0 mm 3,3 km/h (1 Bft) W-SW 247 0 min 8,7 C 8,9 km/h (2 Bft)
13.05.2016 17:30 11,3 C 12,1 C 84 % 1002,3 hPa 0,0 mm 4,5 km/h (1 Bft) W 270 0 min 8,7 C 5,7 km/h (1 Bft)
13.05.2016 17:35 11,4 C 12,1 C 84 % 1002,3 hPa 0,0 mm 4,2 km/h (1 Bft) W-SW 247 0 min 8,8 C 10,1 km/h (2 Bft)
13.05.2016 17:40 11,5 C 12,2 C 84 % 1002,3 hPa 0,0 mm 3,0 km/h (1 Bft) W-SW 247 0 min 8,9 C 4,5 km/h (1 Bft)
13.05.2016 17:45 11,4 C 12,2 C 84 % 1002,3 hPa 0,0 mm 2,7 km/h (1 Bft) N-NO 22 0 min 8,8 C 4,5 km/h (1 Bft)
13.05.2016 17:50 11,4 C 12,0 C 84 % 1002,3 hPa 0,0 mm 3,3 km/h (1 Bft) W 270 0 min 8,8 C 13,4 km/h (3 Bft)
13.05.2016 17:55 11,5 C 12,0 C 84 % 1002,2 hPa 0,0 mm 2,7 km/h (1 Bft) O-NO 67 0 min 8,9 C 3,3 km/h (1 Bft)
13.05.2016 18:00 11,5 C 12,0 C 84 % 1002,2 hPa 0,0 mm 3,0 km/h (1 Bft) SW 225 0 min 8,9 C 9,2 km/h (2 Bft)
13.05.2016 18:05 11,4 C 11,9 C 83 % 1002,2 hPa 0,0 mm 4,5 km/h (1 Bft) W 270 0 min 8,6 C 17,3 km/h (3 Bft)
13.05.2016 18:10 11,4 C 11,9 C 83 % 1002,2 hPa 0,0 mm 3,9 km/h (1 Bft) NW 315 0 min 8,6 C 0,0 km/h (0 Bft)
13.05.2016 18:15 11,6 C 12,1 C 83 % 1002,3 hPa 0,0 mm 1,8 km/h (1 Bft) NW 315 0 min 8,8 C 3,3 km/h (1 Bft)
13.05.2016 18:20 11,7 C 12,3 C 83 % 1002,3 hPa 0,0 mm 0,9 km/h (0 Bft) S-SO 157 0 min 8,9 C 4,8 km/h (1 Bft)
13.05.2016 18:25 11,8 C 12,6 C 83 % 1002,3 hPa 0,0 mm 1,8 km/h (1 Bft) W-SW 247 0 min 9,0 C 0,0 km/h (0 Bft)
13.05.2016 18:30 11,7 C 12,7 C 83 % 1002,3 hPa 0,0 mm 2,7 km/h (1 Bft) W-SW 247 0 min 8,9 C 4,5 km/h (1 Bft)
13.05.2016 18:35 11,8 C 12,7 C 83 % 1002,3 hPa 0,0 mm 3,3 km/h (1 Bft) W-SW 247 0 min 9,0 C 8,3 km/h (2 Bft)
13.05.2016 18:40 11,7 C 12,6 C 83 % 1002,3 hPa 0,0 mm 3,0 km/h (1 Bft) NW 315 0 min 8,9 C 3,0 km/h (1 Bft)
13.05.2016 18:45 11,7 C 12,3 C 83 % 1002,3 hPa 0,0 mm 2,7 km/h (1 Bft) S 180 0 min 8,9 C 6,9 km/h (2 Bft)
13.05.2016 18:50 11,6 C 12,2 C 83 % 1002,3 hPa 0,0 mm 3,3 km/h (1 Bft) W-SW 247 0 min 8,8 C 6,0 km/h (2 Bft)
13.05.2016 18:55 11,5 C 11,9 C 83 % 1002,5 hPa 0,0 mm 4,2 km/h (1 Bft) S-SW 202 0 min 8,7 C 6,3 km/h (2 Bft)
13.05.2016 19:00 11,4 C 11,8 C 83 % 1002,5 hPa 0,0 mm 3,6 km/h (1 Bft) S 180 0 min 8,6 C 6,0 km/h (2 Bft)
13.05.2016 19:05 11,4 C 11,8 C 83 % 1002,5 hPa 0,0 mm 4,5 km/h (1 Bft) W 270 0 min 8,6 C 4,5 km/h (1 Bft)
13.05.2016 19:10 11,3 C 11,7 C 83 % 1002,5 hPa 0,0 mm 4,8 km/h (1 Bft) W 270 0 min 8,5 C 5,1 km/h (1 Bft)
13.05.2016 19:15 11,3 C 11,7 C 82 % 1002,8 hPa 0,0 mm 6,0 km/h (2 Bft) SO 135 0 min 8,3 C 7,7 km/h (2 Bft)
13.05.2016 19:17 11,3 C 11,6 C 82 % 1002,8 hPa 0,0 mm 6,0 km/h (2 Bft) W-NW 292 0 min 8,3 C 4,8 km/h (1 Bft)
13.05.2016 19:19 11,3 C 11,6 C 82 % 1002,8 hPa 0,0 mm 6,0 km/h (2 Bft) W-NW 292 0 min 8,3 C 4,8 km/h (1 Bft)
13.05.2016 19:20 11,3 C 11,6 C 82 % 1002,8 hPa 0,0 mm 6,0 km/h (2 Bft) W-NW 292 0 min 8,3 C 4,8 km/h (1 Bft)
13.05.2016 19:25 11,3 C 11,5 C 83 % 1002,8 hPa 0,0 mm 3,9 km/h (1 Bft) N-NW 337 0 min 8,5 C 15,8 km/h (3 Bft)
13.05.2016 19:30 11,1 C 11,4 C 83 % 1002,8 hPa 0,0 mm 4,8 km/h (1 Bft) NW 315 0 min 8,3 C 5,1 km/h (1 Bft)
13.05.2016 19:35 11,0 C 11,2 C 83 % 1002,9 hPa 0,0 mm 6,3 km/h (2 Bft) NW 315 0 min 8,2 C 11,3 km/h (2 Bft)
13.05.2016 19:40 11,0 C 11,1 C 83 % 1002,9 hPa 0,0 mm 3,9 km/h (1 Bft) SO 135 0 min 8,2 C 3,6 km/h (1 Bft)
13.05.2016 19:45 10,9 C 11,0 C 83 % 1002,9 hPa 0,0 mm 1,8 km/h (1 Bft) NW 315 0 min 8,1 C 0,0 km/h (0 Bft)
13.05.2016 19:50 10,8 C 10,9 C 83 % 1002,9 hPa 0,0 mm 0,9 km/h (0 Bft) W 270 0 min 8,0 C 5,7 km/h (1 Bft)
13.05.2016 19:55 10,7 C 10,7 C 84 % 1003,2 hPa 0,0 mm 3,0 km/h (1 Bft) W-SW 247 0 min 8,1 C 9,8 km/h (2 Bft)
13.05.2016 20:00 10,6 C 10,6 C 84 % 1003,2 hPa 0,0 mm 5,4 km/h (1 Bft) SW 225 0 min 8,0 C 17,6 km/h (3 Bft)
13.05.2016 20:05 10,6 C 10,5 C 84 % 1003,2 hPa 0,0 mm 5,4 km/h (1 Bft) NW 315 0 min 8,0 C 5,1 km/h (1 Bft)
13.05.2016 20:10 10,5 C 10,4 C 84 % 1003,2 hPa 0,0 mm 3,6 km/h (1 Bft) NW 315 0 min 7,9 C 3,0 km/h (1 Bft)
13.05.2016 20:15 10,4 C 10,3 C 85 % 1003,2 hPa 0,0 mm 2,1 km/h (1 Bft) W 270 0 min 8,0 C 3,0 km/h (1 Bft)
13.05.2016 20:20 10,4 C 10,3 C 85 % 1003,2 hPa 0,0 mm 1,2 km/h (1 Bft) NW 315 0 min 8,0 C 0,0 km/h (0 Bft)
13.05.2016 20:25 10,3 C 10,1 C 85 % 1003,2 hPa 0,0 mm 3,3 km/h (1 Bft) O-NO 67 0 min 7,9 C 7,5 km/h (2 Bft)
13.05.2016 20:30 10,3 C 10,1 C 85 % 1003,2 hPa 0,0 mm 6,0 km/h (2 Bft) W 270 0 min 7,9 C 7,2 km/h (2 Bft)
13.05.2016 20:35 10,2 C 10,0 C 86 % 1003,5 hPa 0,0 mm 5,4 km/h (1 Bft) W-NW 292 0 min 8,0 C 6,3 km/h (2 Bft)
13.05.2016 20:40 10,1 C 9,9 C 86 % 1003,5 hPa 0,0 mm 3,6 km/h (1 Bft) W-SW 247 0 min 7,9 C 3,6 km/h (1 Bft)
13.05.2016 20:45 10,1 C 9,9 C 86 % 1003,5 hPa 0,0 mm 1,8 km/h (1 Bft) W-NW 292 0 min 7,9 C 3,6 km/h (1 Bft)
13.05.2016 20:50 10,0 C 9,8 C 86 % 1003,5 hPa 0,0 mm 0,6 km/h (0 Bft) W-NW 292 0 min 7,8 C 4,5 km/h (1 Bft)
13.05.2016 20:55 10,0 C 9,8 C 86 % 1003,8 hPa 0,0 mm 2,1 km/h (1 Bft) W-NW 292 0 min 7,8 C 12,5 km/h (3 Bft)
13.05.2016 21:00 10,0 C 9,8 C 86 % 1003,8 hPa 0,0 mm 3,3 km/h (1 Bft) W-SW 247 0 min 7,8 C 4,2 km/h (1 Bft)
13.05.2016 21:05 9,9 C 9,8 C 87 % 1003,8 hPa 0,7 mm 4,5 km/h (1 Bft) S-SW 202 0 min 7,8 C 4,5 km/h (1 Bft)
13.05.2016 21:10 9,9 C 9,7 C 87 % 1003,8 hPa 0,0 mm 3,9 km/h (1 Bft) NW 315 0 min 7,8 C 5,7 km/h (1 Bft)
13.05.2016 21:15 9,8 C 9,7 C 87 % 1003,8 hPa 0,0 mm 2,7 km/h (1 Bft) W 270 0 min 7,7 C 4,5 km/h (1 Bft)
13.05.2016 21:20 9,8 C 9,7 C 87 % 1003,8 hPa 0,0 mm 2,7 km/h (1 Bft) W-SW 247 0 min 7,7 C 4,8 km/h (1 Bft)
13.05.2016 21:25 9,8 C 9,7 C 87 % 1003,8 hPa 0,0 mm 3,0 km/h (1 Bft) NW 315 0 min 7,7 C 4,2 km/h (1 Bft)
13.05.2016 21:30 9,8 C 9,7 C 87 % 1003,8 hPa 0,0 mm 3,9 km/h (1 Bft) W 270 0 min 7,7 C 4,2 km/h (1 Bft)
13.05.2016 21:35 9,8 C 9,7 C 88 % 1004,0 hPa 0,0 mm 3,3 km/h (1 Bft) W 270 0 min 7,9 C 6,6 km/h (2 Bft)
13.05.2016 21:40 9,8 C 9,7 C 88 % 1004,0 hPa 0,0 mm 2,7 km/h (1 Bft) W-SW 247 0 min 7,9 C 0,0 km/h (0 Bft)
13.05.2016 21:45 9,7 C 9,6 C 88 % 1004,0 hPa 0,0 mm 2,1 km/h (1 Bft) NW 315 0 min 7,8 C 4,2 km/h (1 Bft)
13.05.2016 21:50 9,7 C 9,6 C 88 % 1004,0 hPa 0,7 mm 2,4 km/h (1 Bft) W 270 0 min 7,8 C 7,7 km/h (2 Bft)
13.05.2016 21:55 9,7 C 9,6 C 88 % 1004,2 hPa 0,0 mm 3,3 km/h (1 Bft) S-SW 202 0 min 7,8 C 0,0 km/h (0 Bft)
13.05.2016 22:00 9,7 C 9,6 C 88 % 1004,2 hPa 0,0 mm 2,4 km/h (1 Bft) W-SW 247 0 min 7,8 C 4,8 km/h (1 Bft)
13.05.2016 22:05 9,7 C 9,6 C 88 % 1004,2 hPa 0,0 mm 1,8 km/h (1 Bft) SW 225 0 min 7,8 C 4,8 km/h (1 Bft)
13.05.2016 22:10 9,7 C 9,6 C 88 % 1004,2 hPa 0,7 mm 3,0 km/h (1 Bft) W-SW 247 0 min 7,8 C 6,3 km/h (2 Bft)
13.05.2016 22:15 9,6 C 9,5 C 88 % 1004,4 hPa 0,0 mm 4,2 km/h (1 Bft) S-SO 157 0 min 7,7 C 0,0 km/h (0 Bft)
13.05.2016 22:17 9,6 C 9,5 C 88 % 1004,4 hPa 0,0 mm 3,3 km/h (1 Bft) SW 225 0 min 7,7 C 3,9 km/h (1 Bft)
13.05.2016 22:20 9,6 C 9,5 C 88 % 1004,4 hPa 0,0 mm 3,3 km/h (1 Bft) SW 225 0 min 7,7 C 3,9 km/h (1 Bft)
13.05.2016 22:25 9,6 C 9,5 C 89 % 1004,4 hPa 0,0 mm 4,8 km/h (1 Bft) W-SW 247 0 min 7,9 C 8,0 km/h (2 Bft)
13.05.2016 22:30 9,6 C 9,5 C 89 % 1004,4 hPa 0,7 mm 7,5 km/h (2 Bft) SW 225 0 min 7,9 C 14,9 km/h (3 Bft)
13.05.2016 22:35 9,6 C 9,5 C 89 % 1004,5 hPa 0,0 mm 8,0 km/h (2 Bft) SW 225 0 min 7,9 C 11,9 km/h (2 Bft)
13.05.2016 22:40 9,6 C 9,5 C 89 % 1004,5 hPa 0,0 mm 8,0 km/h (2 Bft) S 180 0 min 7,9 C 6,9 km/h (2 Bft)
13.05.2016 22:45 9,6 C 9,5 C 89 % 1004,5 hPa 0,7 mm 6,9 km/h (2 Bft) S 180 0 min 7,9 C 10,1 km/h (2 Bft)
13.05.2016 22:50 9,5 C 9,4 C 89 % 1004,5 hPa 0,0 mm 6,3 km/h (2 Bft) S-SW 202 0 min 7,8 C 6,3 km/h (2 Bft)
13.05.2016 22:55 9,5 C 9,4 C 89 % 1004,6 hPa 0,0 mm 6,6 km/h (2 Bft) S 180 0 min 7,8 C 7,2 km/h (2 Bft)
13.05.2016 23:00 9,5 C 9,4 C 89 % 1004,6 hPa 0,0 mm 6,9 km/h (2 Bft) S-SW 202 0 min 7,8 C 8,9 km/h (2 Bft)
13.05.2016 23:05 9,4 C 9,2 C 89 % 1004,6 hPa 0,7 mm 8,9 km/h (2 Bft) S-SW 202 0 min 7,7 C 11,3 km/h (2 Bft)
13.05.2016 23:10 9,4 C 9,1 C 89 % 1004,6 hPa 0,7 mm 9,2 km/h (2 Bft) W-SW 247 0 min 7,7 C 11,0 km/h (2 Bft)
13.05.2016 23:15 9,3 C 9,1 C 89 % 1004,4 hPa 0,0 mm 9,2 km/h (2 Bft) S-SO 157 0 min 7,6 C 10,7 km/h (2 Bft)
13.05.2016 23:20 9,3 C 9,0 C 89 % 1004,4 hPa 0,7 mm 9,8 km/h (2 Bft) S 180 0 min 7,6 C 12,5 km/h (3 Bft)
13.05.2016 23:25 9,2 C 8,9 C 89 % 1004,4 hPa 0,0 mm 9,8 km/h (2 Bft) SW 225 0 min 7,5 C 11,6 km/h (2 Bft)
13.05.2016 23:30 9,1 C 8,9 C 89 % 1004,4 hPa 0,0 mm 8,9 km/h (2 Bft) W-SW 247 0 min 7,4 C 8,3 km/h (2 Bft)
13.05.2016 23:35 9,1 C 8,9 C 89 % 1004,4 hPa 0,7 mm 8,0 km/h (2 Bft) SW 225 0 min 7,4 C 9,2 km/h (2 Bft)
13.05.2016 23:40 9,0 C 8,8 C 89 % 1004,4 hPa 0,0 mm 8,9 km/h (2 Bft) S-SW 202 0 min 7,3 C 16,1 km/h (3 Bft)
13.05.2016 23:45 9,0 C 8,6 C 89 % 1004,4 hPa 0,0 mm 11,3 km/h (2 Bft) W 270 0 min 7,3 C 13,7 km/h (3 Bft)
13.05.2016 23:50 8,9 C 8,6 C 90 % 1004,4 hPa 0,0 mm 10,7 km/h (2 Bft) W 270 0 min 7,4 C 16,1 km/h (3 Bft)
13.05.2016 23:55 8,9 C 8,7 C 90 % 1004,2 hPa 0,7 mm 7,2 km/h (2 Bft) W-SW 247 0 min 7,4 C 0,0 km/h (0 Bft)
_ Min-Zeit 05:25 05:55 03:05 06:10 - 17:10 - - - 03:05 23:55
Minimum _ 7,5 C 7,4 C 81 % 998,4 hPa - 0,3 km/h (0 Bft) - - - 4,9 C 0,0 km/h (0 Bft)
_ Max-Zeit 18:35 18:35 23:55 23:10 23:55 23:45 - - 23:55 18:35 12:35
Maximum _ 11,8 C 12,7 C 90 % 1004,6 hPa 0,7 mm 11,3 km/h
W (2 Bft)
- - 0 min 9,0 C 31,9 km/h
W (5 Bft)
Durchschnitt _ 9,3 C 9,4 C 85 % 1000,8 hPa #17,9 mm 4,9 km/h (1 Bft) W-SW - #0 min. 6,9 C 7,2 km/h (2 Bft)